map of PEE home
Great Circle Mapper logo
PEE - Airport
Location
City:  Perm, Russian Federation (Russia)
Name:Bolshoye Savino
ICAO / IATA:USPP / PEE

Details
Type:Airport (Aerodrome, Airfield)
Use:Public/Civil, Military
Latitude:5754'52"N (57.914517)
Longitude:5601'16"E (56.021214)
Datum:WGS 1984
Elevation:404 ft (123 m)
Runways:1
Longest:10520 × 161 ft (3206 × 49 m), paved

Time
Time Zone:UTC+5 (DST+6)

Weather
METAR:USPP 230430Z 23006MPS 4700 -SN BKN019 OVC070 M08/M09 Q1001 21690340 NOSIG RMK QFE740/0987 MOD ICE INC 600-1800
TAF:USPP 230155Z 2303/2403 25005MPS 3000 -SN BR OVC007 650070
TEMPO 2303/2315 0800 +SHSN VV003 BKN010CB
BECMG 2311/2313 34005MPS

Related Locations
Nearby:
Farthest:SCPZ: 10647 mi / 17134 km
Antartica (Antarctica) [Patriot Hills], MA, CL

Find:

   beyond  
but within

Other Information
Maps:
NOTAMs:
Links:
Sources:

  
flag of Russian Federation (Russia)   

Sectional Chart

Flight Planning
at skyvector.com

Satellite Image

Google Maps Satellite View

 

Copyright © 2004-2014 Karl L. Swartz. All rights reserved.
The Great Circle Mapper name and logo are trademarks of the Great Circle Mapper.
All other trademarks mentioned herein belong to their respective owners.
Please see credits for attibutions and further copyright information.

  Follow gcmap on Facebook Follow gcmap on Twitter

hCard Microformat

Geo Microformat